User: anonymous
Location: Daybis Observatory
(33.4273°N, 88.8061°W)
Time: 04:04:28
(UTC-05:00)
Language:

Coronas F rocket - Orbit

View from above orbital plane
View from above orbital plane
View from above satellite
View from above satellite

Ground track
Ground track

The orbit data is extracted from the following two-line orbital elements,

1 26874U 01032B   14210.15487274  .00008356  00000-0  13281-3 0  7391
2 26874 082.4743 299.3111 0013619 257.0581 102.9150 15.53012672727816
Epoch (UTC): 29 July 2014 03:43:01
Eccentricity: 0.0013619
inclination: 82.4743°
perigee height: 399 km
apogee height: 417 km
right ascension of ascending node: 299.3111°
argument of perigee: 257.0581°
revolutions per day: 15.53012672
mean anomaly at epoch: 102.9150°
orbit number at epoch: 72781

The dashed part of the orbit path shows where the satellite is in the earth's shadow,  

DLR